Theta_e
314 313 312 312 312 311 310 309 310 309 308 308 307 307 306 305 304 304 304 304 304 306 307 307 308 308 308 307 307 308 309 311 313 313 315 316 316 318 317 315 316 313 312 313 313 313 313 314 313 313 315 315 314 316 315 313 313 316 319 317 314 316 316 317 318 315 316 316 313 311 311 314 314 311 310 311 311 313 312 312 313 312 312 312 313 312 313 322
313 313 312 312 312 311 311 309 309 308 307 307 307 307 306 305 304 304 304 304 304 305 306 307 307 307 307 307 308 309 310 312 314 314 315 316 315 318 318 316 315 313 313 314 312 313 313 314 313 313 315 314 313 315 316 313 313 317 318 315 314 318 316 315 316 314 315 316 314 312 311 312 314 313 311 313 314 313 313 314 313 313 314 313 313 313 315 322
313 312 312 312 311 311 311 310 310 309 308 306 307 307 306 305 304 304 304 304 305 305 306 307 307 307 307 308 309 309 311 314 315 314 314 314 314 317 319 316 314 314 314 314 313 314 314 313 312 313 315 314 313 314 316 314 314 314 315 314 315 318 315 312 313 313 312 312 313 312 310 310 312 312 312 313 315 314 314 315 314 314 314 315 315 315 317 322
312 312 311 311 311 311 311 310 310 310 309 306 306 307 305 304 304 304 305 305 305 305 306 306 307 307 307 308 309 310 312 314 313 313 313 314 314 315 316 315 314 315 315 314 314 314 313 313 313 314 315 315 313 313 314 313 314 314 313 314 314 313 315 312 310 311 309 310 313 312 310 311 311 310 312 314 314 314 315 315 315 315 315 316 317 317 320 322
312 312 311 311 310 310 311 311 311 310 310 308 306 306 305 304 304 304 305 305 306 306 306 306 307 307 308 309 310 311 312 312 312 312 313 313 313 313 314 314 315 315 315 315 315 314 313 313 314 315 315 314 314 314 313 310 311 314 312 312 311 311 315 312 308 309 308 309 311 311 312 312 311 310 312 313 314 315 315 315 315 315 315 316 317 319 320 322
313 312 311 311 310 310 311 311 310 310 310 308 307 305 304 304 304 304 305 305 306 306 307 307 308 308 309 310 310 311 312 312 311 312 313 312 312 313 314 315 315 315 315 315 314 314 314 314 315 316 315 314 314 314 313 309 309 314 313 310 309 310 313 310 308 308 307 310 312 312 312 311 311 312 312 311 314 315 313 312 313 313 312 313 318 320 320 321
312 311 311 310 310 310 310 310 311 310 310 308 308 306 304 304 304 305 305 305 306 307 307 307 308 309 310 310 310 313 314 313 311 312 312 312 312 313 314 315 315 315 315 315 314 314 315 314 315 314 315 314 313 313 312 310 310 314 314 311 309 308 310 310 308 307 307 310 311 310 311 311 313 313 310 310 313 314 311 310 311 311 309 311 317 319 320 322
311 311 311 309 310 311 310 311 311 310 309 310 310 308 306 305 305 305 306 306 307 308 308 307 308 309 311 311 313 313 313 314 313 313 312 312 313 313 314 315 315 315 315 315 314 315 315 314 314 313 315 313 313 313 311 312 313 315 314 311 310 309 309 308 306 307 307 309 308 308 311 312 311 311 309 311 313 313 313 311 311 311 309 311 315 317 321 322
311 311 311 309 310 310 310 310 310 310 310 311 311 309 308 306 305 306 306 307 307 309 309 309 309 310 311 311 313 312 311 316 315 313 312 312 313 313 314 315 315 316 315 314 313 315 315 314 313 313 314 312 312 313 310 313 315 314 313 312 311 311 310 308 308 308 308 309 308 311 313 311 309 309 312 314 314 313 312 312 311 311 311 312 314 316 320 322
310 310 310 309 309 309 309 309 309 310 311 311 311 309 308 306 306 306 307 307 307 309 310 310 310 311 310 310 312 310 312 317 316 313 312 312 313 313 314 315 315 316 315 314 313 314 315 315 313 312 314 312 311 312 311 313 314 311 311 312 312 312 310 309 311 309 309 310 309 312 314 311 308 310 315 316 313 311 311 312 312 311 312 313 313 315 318 320
311 310 309 308 309 309 308 308 309 311 311 311 311 310 308 306 306 307 307 307 308 309 310 310 312 312 311 311 310 310 314 318 316 313 312 312 313 313 315 315 315 316 315 314 313 312 313 313 311 312 315 313 312 312 310 310 310 310 311 313 313 312 311 309 312 311 310 312 309 311 313 311 310 311 316 316 310 309 312 312 313 312 313 313 313 314 316 318
312 311 309 309 309 308 307 308 309 310 311 310 310 309 308 307 306 307 307 308 309 310 311 311 312 313 313 311 310 313 317 317 314 313 312 312 313 313 315 316 315 316 316 315 313 312 312 311 312 314 314 313 313 313 311 309 309 310 311 315 315 314 314 311 311 310 311 313 309 311 313 313 313 313 315 314 309 310 312 313 313 313 313 313 313 313 315 316
311 311 310 310 308 308 308 309 309 310 310 310 309 310 310 307 307 307 308 309 310 310 311 313 313 313 311 309 312 316 318 316 313 313 312 312 313 314 315 315 316 315 315 315 313 312 312 312 313 313 311 312 313 312 311 309 310 312 312 315 316 316 315 312 310 309 311 312 309 311 313 315 317 315 316 313 309 311 312 314 313 313 313 313 313 312 313 315
310 310 311 310 309 308 309 310 310 310 310 310 310 312 310 308 308 308 309 311 311 311 312 313 313 311 310 311 313 316 318 316 314 312 312 313 313 314 314 315 315 314 314 314 312 312 311 312 313 313 311 311 312 310 312 312 312 314 313 314 316 314 314 313 310 310 313 311 308 312 313 315 318 316 315 309 307 310 312 314 314 314 313 312 313 313 313 315
311 310 311 311 310 309 310 311 312 312 311 311 312 312 310 309 309 309 311 312 312 312 313 313 313 311 309 310 313 315 316 316 314 312 312 313 314 314 314 314 315 314 314 313 312 312 312 313 313 313 310 309 311 313 315 314 313 314 312 314 316 313 314 315 310 310 313 310 308 313 314 316 318 316 313 307 307 309 311 313 314 313 313 312 313 312 313 314
312 312 311 311 311 311 310 310 312 312 312 312 311 312 311 311 311 311 312 312 313 313 313 313 312 311 309 310 312 314 315 317 316 313 312 312 314 314 314 314 314 314 314 313 313 313 312 313 312 311 311 311 313 316 316 315 315 315 313 314 316 314 315 315 310 308 310 311 311 312 314 316 317 315 312 307 307 309 310 313 313 313 312 312 312 312 312 313
313 313 312 311 311 311 311 310 311 311 311 312 311 312 313 312 313 313 314 314 314 314 313 312 310 310 309 310 312 312 314 316 315 314 313 312 313 314 314 313 313 313 314 314 314 314 314 313 310 311 313 312 314 316 315 313 314 315 315 315 315 314 313 313 313 309 308 311 313 313 313 315 316 315 314 311 310 310 311 313 313 314 313 312 312 311 312 312
313 312 312 312 311 311 311 310 310 310 310 311 312 314 314 315 315 315 315 313 312 311 311 311 309 309 309 309 311 313 314 315 314 314 313 312 313 314 315 313 312 314 315 315 314 314 314 313 313 315 315 313 314 316 314 312 313 314 315 315 314 313 313 313 314 311 309 311 313 314 314 314 315 316 315 315 312 311 312 313 313 313 313 313 312 311 312 312
313 313 313 312 311 311 311 311 311 311 311 312 314 315 314 315 315 315 314 312 310 308 310 311 309 310 311 310 313 314 314 314 314 314 313 312 313 314 314 313 315 316 315 316 315 313 315 315 316 316 317 315 315 316 314 314 314 314 316 315 313 313 313 314 314 310 309 312 313 314 315 315 316 316 316 315 314 312 312 312 313 313 313 312 312 312 312 312
314 313 313 313 312 311 311 311 311 311 312 314 315 313 313 315 314 314 314 313 311 309 312 313 310 311 313 312 314 314 314 314 314 314 312 312 313 314 314 313 317 317 315 318 317 312 313 316 317 316 317 317 316 315 314 313 313 315 317 315 315 315 313 315 315 309 308 312 315 315 315 315 315 316 316 315 314 313 313 312 313 313 313 313 313 313 313 313
315 314 313 313 313 312 312 312 311 311 311 313 313 311 311 313 312 311 313 313 311 310 312 313 311 312 313 312 314 314 314 315 315 314 312 312 313 315 314 314 317 316 314 316 315 312 313 317 318 317 315 314 314 313 312 312 313 314 315 315 316 316 315 315 314 310 308 312 315 315 315 315 315 315 315 315 315 314 314 314 314 315 315 315 314 314 314 314
316 315 314 314 313 312 312 312 311 311 311 313 313 311 311 311 310 310 311 312 313 310 313 313 311 313 312 311 313 313 314 316 315 315 313 312 314 315 314 314 316 316 313 314 315 315 316 317 317 314 311 310 310 310 311 313 313 314 315 315 316 316 315 314 313 311 309 311 315 315 314 315 315 316 315 315 315 315 316 315 316 316 316 316 315 315 315 314
317 316 315 315 314 313 312 312 311 311 312 313 313 311 311 311 311 310 310 311 312 312 313 314 312 313 313 312 313 313 314 315 315 316 314 313 314 314 314 315 315 315 313 314 316 317 317 316 314 311 310 311 310 310 311 313 314 315 316 315 316 317 316 313 313 312 310 311 313 314 314 316 316 316 316 316 316 316 316 315 315 316 315 316 316 317 316 315
318 317 316 316 314 313 312 312 312 312 313 313 313 311 311 313 311 310 312 311 310 311 312 312 312 313 313 312 313 314 314 314 314 315 314 313 313 313 314 314 314 315 314 315 316 317 317 314 310 309 311 314 312 311 313 314 315 316 317 316 316 317 316 314 314 313 312 312 312 314 315 316 319 319 319 318 316 315 315 314 315 315 315 315 315 316 315 314
319 318 317 316 314 313 312 312 313 313 313 312 313 312 313 314 311 310 311 310 309 310 309 310 312 313 312 311 313 314 313 313 314 315 314 313 313 313 313 312 313 316 315 314 315 317 316 311 309 311 312 314 315 313 315 316 315 317 317 316 315 316 316 315 315 314 316 316 314 315 316 316 318 319 319 319 317 316 316 316 315 316 316 315 314 314 314 313
320 319 318 316 315 313 312 313 313 312 313 312 312 313 314 313 312 311 310 309 309 310 309 309 312 312 311 313 314 313 311 312 312 312 313 313 313 312 313 312 312 314 314 313 314 316 315 310 312 315 313 315 316 314 316 317 315 316 317 316 315 315 316 316 316 316 317 317 315 315 317 318 317 317 318 319 318 318 319 319 318 318 317 316 316 315 314 313
321 319 318 317 314 313 313 314 313 312 314 313 310 313 314 313 313 311 309 309 309 312 313 310 310 310 311 313 313 310 310 311 311 312 312 313 312 311 313 313 311 312 312 312 314 314 314 312 313 316 316 315 315 315 317 316 315 317 318 316 314 314 316 316 316 317 317 318 317 316 319 320 318 318 318 319 318 318 318 319 319 320 320 318 317 316 315 314
321 320 319 318 315 314 314 314 313 312 313 312 310 314 315 313 312 310 308 309 310 313 313 310 308 310 311 311 311 310 310 311 313 314 311 311 312 312 313 314 313 314 311 313 316 313 314 317 316 316 316 315 316 318 317 315 315 318 315 313 313 315 316 316 317 317 317 318 319 319 319 318 318 319 317 317 318 319 319 319 319 320 321 320 317 316 315 313
320 320 319 318 316 314 314 314 314 314 313 311 311 314 315 312 311 310 309 309 311 312 311 311 310 310 311 310 310 310 309 312 314 313 310 311 312 312 312 313 313 314 311 312 316 314 312 313 314 315 316 316 317 315 313 315 317 315 311 312 314 315 315 316 318 318 318 320 322 321 318 316 316 318 317 317 318 319 319 319 319 321 322 320 318 317 315 312
319 320 319 318 316 314 314 314 314 314 312 311 311 314 314 311 309 309 308 310 314 313 310 311 312 312 312 310 311 311 311 312 312 312 312 312 312 310 310 310 311 314 314 313 316 314 310 308 311 315 315 315 314 309 310 316 315 312 314 317 317 316 316 317 317 318 320 321 321 321 319 316 316 318 319 319 318 319 320 319 319 321 320 319 318 316 314 311
318 319 319 318 316 314 314 315 315 314 312 311 311 312 313 313 312 310 309 310 314 315 311 311 312 312 312 312 312 311 312 313 312 313 314 313 313 312 311 312 313 315 316 315 316 314 312 312 313 314 312 312 313 311 310 311 311 314 319 320 319 318 317 318 319 319 320 320 319 318 318 319 319 318 318 319 318 317 318 319 320 322 322 323 322 317 313 310
316 318 319 318 317 315 315 316 316 314 312 311 313 314 313 314 315 312 310 308 310 315 314 314 314 313 313 315 315 313 314 314 313 315 315 315 315 314 314 315 315 316 316 316 317 316 316 316 315 313 311 312 316 316 313 311 311 315 319 319 319 317 317 319 320 320 320 319 316 313 315 319 320 318 318 318 317 316 317 317 319 321 323 324 323 318 314 311
313 316 318 317 317 316 315 317 317 314 312 312 314 315 312 314 316 312 310 309 312 315 315 315 315 314 314 314 314 313 314 315 314 314 315 316 317 316 316 317 317 317 316 316 317 316 316 316 315 315 313 313 317 317 316 315 314 316 319 319 318 317 319 320 319 317 317 318 313 311 315 319 318 317 318 317 317 317 317 316 317 318 319 320 319 317 314 312
311 314 317 317 317 316 316 316 316 314 312 313 315 312 309 314 318 314 311 313 316 315 313 315 314 314 314 316 315 314 313 314 314 315 316 316 317 318 317 316 316 316 316 315 316 316 315 315 315 316 316 315 316 317 319 319 316 316 319 319 318 318 318 318 317 316 316 317 314 311 315 319 318 317 318 317 317 317 317 317 317 316 316 316 315 313 312 311
311 311 315 316 316 316 315 315 316 314 311 312 315 312 310 314 317 316 314 315 318 316 313 314 314 314 315 317 316 314 313 314 314 315 316 316 318 318 317 316 315 315 315 314 315 316 316 315 316 317 317 316 316 318 320 318 316 316 317 318 319 318 315 313 315 316 315 317 317 314 316 318 317 317 317 315 315 316 316 316 316 315 315 315 314 314 313 311
312 311 313 316 316 315 315 314 315 313 311 313 314 312 313 315 316 318 316 315 318 316 314 314 315 316 316 316 316 314 314 315 315 315 316 316 317 317 317 318 316 314 313 313 316 316 314 315 316 315 315 314 315 318 318 317 316 316 316 318 317 316 315 315 315 314 314 317 318 317 318 317 316 317 317 316 316 315 315 314 314 314 315 315 315 316 316 315
312 312 314 316 316 316 315 315 314 312 312 315 314 313 315 317 319 321 318 316 316 315 315 316 316 317 317 317 317 315 315 316 315 316 317 316 316 317 317 317 316 314 313 313 317 317 314 315 315 314 315 313 310 314 316 316 316 315 317 318 316 315 316 316 317 318 318 320 320 318 318 317 317 318 317 317 317 316 315 315 315 315 316 315 315 316 316 317
313 312 313 314 315 316 315 314 314 312 313 315 313 315 316 316 319 321 317 316 316 315 317 317 317 318 318 317 318 316 315 316 315 316 317 315 316 317 316 316 316 315 314 314 315 315 314 315 316 312 314 313 310 314 317 314 313 314 316 317 316 318 319 317 318 320 320 321 320 318 317 316 318 318 317 318 320 319 317 317 316 315 315 316 315 315 315 316
312 312 313 312 314 316 315 314 313 313 314 314 313 315 316 315 318 320 316 315 316 316 317 317 317 317 317 317 318 316 315 316 316 315 317 316 315 316 315 315 316 315 313 313 313 314 315 313 316 311 310 313 313 315 318 316 314 312 313 315 315 317 319 319 318 318 319 319 319 319 318 317 318 319 317 318 320 319 318 320 320 317 316 317 316 317 318 319
312 313 313 311 312 315 315 313 313 314 314 314 313 314 316 316 317 317 315 315 317 316 315 317 318 317 317 317 317 316 316 317 317 316 316 316 315 316 315 314 317 315 314 314 313 315 315 312 315 314 310 314 316 317 318 318 316 315 315 317 316 315 316 317 317 316 317 319 319 320 321 318 318 320 318 317 318 318 318 321 322 321 320 318 317 319 323 324
312 314 314 312 312 314 314 313 315 315 313 312 312 312 314 315 316 315 313 313 315 314 313 316 317 317 318 317 316 317 317 317 317 316 317 315 314 316 315 314 318 316 314 315 314 315 315 312 314 316 313 316 318 317 317 318 319 318 317 318 318 317 316 318 319 316 316 319 318 319 321 318 319 320 318 317 318 318 319 320 321 324 322 320 320 321 322 320
312 314 314 313 313 314 314 314 316 315 312 311 311 311 312 314 315 314 312 312 314 314 314 317 317 316 317 316 316 318 318 317 317 316 317 316 315 317 316 314 317 316 314 316 316 316 318 315 315 318 317 317 316 311 309 313 317 316 316 317 318 318 318 319 321 319 317 318 316 316 319 319 320 321 318 318 319 317 318 319 320 323 321 319 322 323 319 314
311 314 313 313 314 314 314 316 316 315 312 311 311 311 312 313 314 314 313 313 314 313 315 318 318 316 317 318 318 318 318 318 317 316 317 317 316 316 317 314 314 315 315 316 316 316 318 317 316 318 319 318 315 310 308 309 314 315 315 316 316 318 319 319 319 319 319 319 318 319 320 320 322 321 317 317 317 315 316 317 320 322 318 316 318 320 317 313
310 312 312 313 313 314 316 317 317 315 313 312 312 312 312 312 313 314 314 313 313 314 315 317 317 317 317 318 318 318 318 319 318 316 317 318 316 316 318 316 314 315 316 317 316 315 317 318 318 318 319 319 318 316 314 313 313 316 317 316 316 318 320 320 318 317 319 321 321 322 322 321 321 319 315 315 315 315 315 314 315 318 318 316 317 318 314 311
308 310 311 311 312 314 316 315 315 316 315 313 313 312 312 312 312 313 314 313 313 314 316 316 317 318 317 317 318 318 318 319 319 318 318 320 319 316 316 316 315 314 317 320 318 315 319 319 318 318 319 320 321 321 320 318 315 315 317 317 317 318 319 319 318 318 320 322 322 321 321 320 319 319 316 315 315 316 316 313 311 313 315 314 314 315 313 312
307 309 311 310 310 312 315 315 314 314 315 315 314 313 312 313 313 312 313 314 313 313 315 316 317 317 317 316 317 317 318 319 319 319 320 322 321 317 314 315 315 315 318 321 319 319 323 321 317 318 319 319 321 320 320 321 318 317 318 318 317 318 319 319 319 320 321 321 321 321 320 320 319 319 317 316 315 316 316 315 313 313 315 315 314 313 311 310
306 308 311 312 311 310 312 314 315 314 314 314 315 314 313 313 313 313 313 313 313 313 314 315 315 315 316 316 316 317 317 318 318 318 319 320 319 317 313 312 314 316 317 318 317 320 324 321 318 320 319 318 320 319 320 321 321 319 320 319 318 318 319 319 320 321 321 321 322 321 321 321 320 318 318 318 317 316 315 314 314 315 316 316 315 314 310 308
305 306 308 310 311 310 309 311 314 315 314 314 314 315 315 314 314 314 313 313 313 313 314 315 315 314 315 315 316 317 317 318 318 317 318 318 317 318 315 313 314 315 315 316 316 319 322 320 319 321 320 318 319 319 319 321 320 320 320 320 319 318 318 319 320 320 320 322 322 321 321 322 320 318 319 318 318 317 316 314 314 315 316 315 314 312 310 312
304 304 305 306 308 309 308 308 311 314 315 315 314 314 315 315 314 314 314 314 314 313 314 315 315 314 315 315 316 316 317 317 318 317 317 317 317 318 318 317 315 313 314 316 316 319 320 319 319 321 320 319 319 319 319 319 319 319 319 320 320 318 318 319 318 319 320 321 321 320 322 321 320 319 319 318 319 318 317 315 315 316 317 317 315 311 310 313
303 304 304 305 306 306 306 306 308 311 312 313 314 314 314 315 315 314 314 314 315 314 314 314 315 315 315 315 315 316 316 316 317 317 316 316 317 316 317 319 318 314 313 316 317 318 318 318 320 320 319 320 319 319 319 320 319 319 318 319 320 319 319 319 319 319 320 320 320 320 322 321 319 319 319 318 319 319 317 315 315 316 317 317 316 313 311 312
302 302 303 305 305 306 307 307 308 309 309 310 311 312 312 313 314 315 314 314 314 315 314 314 315 315 315 316 316 316 316 316 317 317 316 315 316 316 316 318 319 317 314 315 317 317 316 317 319 319 319 321 320 320 320 320 319 319 318 319 319 318 319 319 318 319 319 320 321 321 321 321 319 318 319 319 319 318 316 315 315 316 317 316 316 316 315 314
302 301 302 303 303 304 307 308 308 309 309 309 309 310 310 312 313 314 315 314 314 315 314 314 314 315 316 316 315 315 315 315 315 317 318 317 317 316 317 317 317 317 315 314 314 315 316 317 318 319 320 321 321 321 321 320 321 321 319 318 318 317 318 318 318 318 318 319 320 320 320 319 318 319 318 319 319 317 316 316 316 316 316 316 316 317 315 314
Wind_Speed
7 6 5 5 5 5 6 6 6 6 6 6 6 5 5 5 5 5 6 5 6 6 6 5 5 4 2 2 1 1 1 1 1 2 2 1 1 3 4 3 3 2 2 1 2 3 3 2 3 4 4 3 2 1 1 2 2 2 2 3 3 3 3 4 7 5 1 2 7 8 8 8 6 5 3 3 4 2 2 4 3 3 5 3 1 3 7 12
7 6 5 5 4 4 5 5 5 6 6 6 6 6 6 6 6 6 6 6 6 6 6 6 5 4 2 2 0 1 0 1 3 4 4 0 2 4 4 3 2 2 1 1 3 4 2 2 3 3 2 1 1 1 1 1 2 1 1 2 3 2 1 1 5 5 1 1 7 7 4 4 4 5 5 5 5 5 6 6 5 6 8 7 5 5 9 12
8 7 6 5 5 4 5 5 5 5 5 6 6 6 6 6 6 6 6 6 6 6 7 6 5 4 3 2 0 1 1 3 3 2 3 1 3 5 5 3 3 3 2 1 3 4 3 3 4 2 1 2 1 0 1 2 2 0 1 4 2 1 1 0 3 4 1 1 5 7 3 2 2 3 5 5 4 5 9 8 6 9 11 10 9 9 11 13
9 7 6 5 5 4 4 5 5 5 5 6 7 7 7 7 7 7 6 6 6 7 7 6 5 4 3 2 1 1 2 3 2 1 2 2 4 6 5 4 4 3 3 2 4 5 5 5 4 2 1 2 2 0 1 3 1 1 1 2 2 0 1 2 2 3 2 2 2 6 4 4 2 2 4 4 5 7 10 11 9 11 10 9 11 11 13 14
10 7 6 5 5 4 4 4 4 5 6 7 7 7 7 8 8 7 7 7 7 7 7 6 6 4 3 2 1 1 1 3 2 2 2 4 6 7 6 5 4 3 3 3 4 5 5 4 3 2 2 2 2 1 1 3 1 1 0 2 3 1 1 2 0 2 1 1 2 6 5 4 4 3 5 6 9 6 3 6 8 9 4 6 11 13 13 14
12 8 7 6 5 5 4 4 4 4 5 6 7 7 8 8 8 7 8 8 7 7 7 7 6 5 4 2 1 1 2 1 1 2 3 6 7 7 6 5 4 4 2 3 5 4 3 2 2 2 2 2 1 2 2 2 2 0 1 1 1 1 2 2 1 2 2 2 5 5 3 4 4 5 3 8 13 4 4 2 1 2 1 3 10 14 13 14
12 9 9 7 6 6 5 5 4 4 5 5 5 6 7 8 8 8 8 8 8 8 8 7 6 5 4 3 2 2 0 1 1 4 6 6 7 7 6 6 5 4 3 3 4 3 2 2 3 2 2 3 1 2 2 0 1 1 3 3 2 0 2 1 0 2 3 3 3 2 2 4 6 5 1 7 15 8 1 3 1 1 1 3 8 13 13 14
11 10 11 9 6 6 6 5 4 4 5 4 4 5 6 7 8 8 8 8 8 8 8 7 6 5 5 4 2 2 2 1 3 6 7 6 6 6 6 6 5 4 4 4 3 3 2 1 4 3 1 3 2 3 1 1 2 1 3 4 2 1 0 1 0 3 2 2 1 1 4 3 2 1 3 10 12 9 5 3 2 1 3 5 8 11 12 13
12 12 13 10 7 7 6 5 4 4 4 3 4 5 5 6 7 8 8 8 9 9 8 7 7 6 6 4 2 3 2 1 5 8 8 6 6 6 5 5 4 4 5 6 3 3 2 1 3 3 3 4 2 3 1 2 2 2 3 3 3 2 1 2 2 2 2 1 2 4 3 2 0 1 8 12 7 2 2 3 3 3 5 6 7 10 11 12
12 13 13 10 9 8 7 6 5 5 4 3 3 4 5 6 7 8 8 8 9 9 9 8 7 6 6 5 2 3 2 2 7 9 8 7 6 6 5 5 5 5 5 7 5 3 1 3 3 2 4 5 2 2 2 1 2 2 2 2 2 1 2 1 1 2 1 1 2 5 2 2 1 2 8 5 1 1 2 5 4 4 7 7 6 8 10 11
12 11 11 10 10 9 7 7 7 6 5 4 3 4 4 5 7 8 8 8 9 9 9 8 8 6 5 4 3 2 3 4 8 9 8 7 6 5 5 6 6 6 7 8 6 6 5 7 7 2 1 3 3 3 2 1 1 1 1 3 2 1 3 2 1 2 1 1 2 3 2 2 3 5 10 2 3 0 3 6 5 5 6 6 7 7 7 9
12 11 10 10 10 9 8 7 7 6 5 4 3 3 3 4 6 8 8 8 9 9 9 8 8 6 5 3 1 3 4 5 8 9 9 8 7 7 7 7 7 6 7 7 5 6 8 8 6 3 2 3 4 3 3 2 0 1 1 2 1 2 2 2 2 1 2 1 2 1 5 7 8 13 11 3 2 1 3 7 6 6 6 5 7 6 6 9
13 11 10 10 9 8 8 7 6 5 4 4 3 2 2 2 4 8 9 9 9 9 9 8 7 6 4 1 2 5 6 6 8 9 9 9 8 9 9 9 9 8 8 9 7 7 7 4 4 6 3 1 2 1 4 3 1 1 0 1 1 3 2 1 2 1 2 1 1 2 6 6 10 16 8 5 1 1 5 9 6 6 6 5 6 5 7 9
12 12 11 9 8 8 8 6 5 4 3 3 2 2 2 2 4 8 9 10 10 10 9 9 8 6 2 1 3 5 5 5 8 10 11 11 11 12 11 11 11 11 11 13 11 9 8 7 8 8 3 3 3 3 3 2 1 1 0 1 1 3 1 3 2 2 4 1 1 3 7 6 5 8 2 4 1 4 9 10 6 6 5 5 6 6 8 9
8 9 10 9 8 8 7 7 5 4 4 3 2 2 2 3 6 9 10 10 10 10 9 8 7 5 2 2 3 4 5 5 9 11 12 12 12 10 10 12 14 13 13 14 13 11 9 7 6 5 3 2 3 4 3 2 1 2 2 2 1 2 1 2 2 1 1 2 1 5 6 7 5 3 3 3 1 4 9 10 6 7 6 6 6 7 8 8
8 7 7 8 9 8 7 7 7 6 5 4 4 3 3 4 8 10 11 10 10 9 8 6 6 4 2 2 3 3 4 5 8 10 12 12 9 9 12 13 13 12 12 11 11 10 9 7 4 2 2 1 3 4 2 1 1 1 2 2 1 2 2 1 2 1 1 1 4 7 6 5 4 1 3 2 1 3 7 9 8 8 7 7 7 7 8 8
9 8 6 6 7 8 7 6 7 7 6 5 5 5 4 6 9 10 10 11 10 8 6 5 4 3 1 2 3 3 3 4 8 10 11 10 9 13 14 9 8 9 9 9 7 5 6 6 1 1 2 1 2 3 2 3 3 2 1 2 1 2 2 3 1 3 0 1 5 8 8 11 9 4 2 3 3 3 7 10 10 9 7 7 7 7 8 9
8 8 7 6 6 7 7 6 6 6 6 6 6 6 8 9 9 10 11 12 10 7 4 3 2 2 2 3 3 2 4 5 8 9 9 10 12 13 10 6 6 6 6 4 3 3 3 2 1 1 2 1 2 4 5 2 2 3 3 2 1 2 4 5 3 2 2 2 5 8 9 15 16 12 10 5 5 7 11 11 11 10 9 8 7 9 9 9
8 8 8 7 6 7 6 6 6 6 7 8 8 10 12 10 8 8 7 6 5 3 2 3 4 2 2 3 3 5 7 8 9 7 8 11 12 11 9 8 6 4 4 2 1 2 1 1 1 2 4 5 7 8 5 1 3 3 2 1 1 3 5 6 2 2 1 3 7 11 12 15 17 15 14 9 5 8 13 12 11 11 10 9 9 10 10 11
9 9 9 8 7 7 6 6 6 7 8 9 11 11 8 6 4 3 2 2 2 1 1 1 2 2 2 2 5 9 9 7 4 4 9 12 12 10 7 4 3 3 2 2 2 1 2 2 4 6 4 5 8 5 2 5 5 3 3 1 2 3 7 5 1 3 1 4 9 11 12 15 17 15 15 13 8 9 13 13 13 12 10 9 11 12 12 13
11 11 10 9 7 6 7 7 6 7 8 10 11 6 2 4 2 3 3 3 2 1 2 3 3 3 3 4 8 9 5 4 2 3 9 10 9 8 2 0 4 4 0 1 3 2 2 5 7 5 2 4 4 4 5 4 4 2 2 2 2 4 8 6 0 1 2 3 8 8 11 14 15 15 14 13 13 14 16 16 16 15 12 10 12 15 14 10
13 12 11 10 7 6 7 7 7 8 8 10 9 3 2 3 2 4 4 2 2 1 1 2 2 1 3 3 7 6 1 3 3 3 8 7 4 5 3 3 6 4 2 3 3 2 3 7 6 3 8 7 5 5 5 3 3 2 2 2 3 3 5 7 1 1 2 4 6 6 9 13 14 16 16 16 16 17 16 16 16 14 13 12 13 14 12 9
14 13 12 11 9 7 6 7 7 7 7 8 7 4 2 3 6 5 2 1 1 1 2 2 2 3 3 1 6 6 2 3 4 5 8 7 3 2 5 6 5 4 5 7 6 5 4 4 2 5 8 7 6 5 6 4 3 4 3 3 4 1 2 5 1 2 3 3 4 7 9 11 13 15 17 18 17 16 16 15 14 13 14 17 16 11 9 10
15 15 14 13 12 9 6 6 7 7 7 7 9 8 4 7 8 4 1 1 1 1 1 3 2 4 4 3 8 9 2 1 3 6 11 10 5 3 4 5 5 5 6 9 8 6 3 1 2 5 7 7 6 6 7 5 4 5 6 6 5 4 5 6 3 4 4 2 2 7 9 8 8 10 11 9 8 12 13 11 13 14 15 17 15 12 10 11
16 16 16 15 14 11 8 7 7 8 7 7 11 10 9 9 7 4 2 1 2 1 0 3 2 5 6 5 9 8 1 2 2 3 11 10 5 5 3 2 3 6 8 6 4 6 3 3 4 6 4 4 6 5 6 6 4 4 6 9 10 9 7 5 2 5 5 2 1 4 7 4 3 5 7 3 4 9 7 6 11 13 12 12 12 12 11 10
17 17 17 17 16 15 11 6 7 8 6 6 11 12 11 10 7 4 2 1 3 2 2 4 4 7 9 7 7 6 1 3 0 3 10 8 2 3 4 2 0 3 6 6 2 3 1 2 2 5 6 5 5 4 5 7 4 2 2 6 10 8 5 5 2 2 4 3 0 1 6 6 4 8 10 6 9 14 8 7 12 12 9 8 8 9 8 8
19 19 19 19 20 19 11 4 7 9 4 6 12 16 12 10 7 3 1 1 4 3 4 2 1 6 9 7 7 6 3 2 4 4 5 4 2 1 2 5 3 1 4 4 2 2 3 4 3 5 5 5 5 4 5 8 5 1 1 2 4 5 5 5 3 4 4 4 2 3 2 8 8 6 7 8 11 15 13 12 13 13 10 7 7 9 8 7
22 22 22 21 23 22 11 6 11 11 6 5 14 19 14 10 6 1 1 3 3 4 4 1 2 4 5 4 4 3 0 1 4 3 1 2 2 1 3 7 7 5 5 5 5 1 2 6 7 8 5 4 5 1 5 11 5 1 2 2 3 3 3 3 2 3 2 4 5 4 5 7 7 2 2 4 8 11 13 13 15 14 8 4 6 8 6 5
25 24 25 24 25 22 13 8 10 10 8 8 17 20 14 9 4 2 1 4 1 3 2 3 5 3 4 5 2 2 2 2 1 1 2 2 2 2 2 4 4 5 3 2 3 1 1 2 4 6 6 5 3 3 2 8 4 3 5 5 5 4 4 3 1 1 0 5 6 7 9 7 7 3 4 2 5 9 11 11 13 11 4 3 6 6 4 3
27 27 27 26 27 25 15 10 11 8 5 11 19 19 13 6 2 3 3 4 2 2 2 3 3 4 9 10 3 1 2 2 1 3 2 1 3 3 0 1 3 4 2 2 1 1 1 1 1 2 2 2 5 5 2 0 3 6 7 5 5 3 2 1 0 1 2 7 5 8 14 11 7 2 6 4 4 7 9 9 9 8 5 5 5 4 3 3
23 28 30 29 31 29 16 10 15 10 6 13 18 16 9 2 1 5 6 1 1 2 3 2 2 6 14 13 5 3 2 2 3 6 5 3 3 3 3 3 3 3 1 3 2 1 1 1 1 0 1 3 6 5 4 3 3 4 3 3 3 1 1 2 1 1 4 7 2 2 6 10 9 4 4 3 4 7 8 8 8 7 6 4 2 2 2 1
15 23 32 33 33 33 22 14 19 14 8 15 17 9 4 2 1 6 5 2 1 4 6 3 2 7 11 6 4 6 5 2 5 7 6 5 6 7 7 7 7 4 5 7 4 2 1 3 2 1 0 3 5 5 4 2 1 2 3 5 4 2 2 3 3 2 5 5 0 1 1 6 10 9 7 7 9 11 9 8 8 7 8 5 2 2 1 0
11 15 28 35 34 34 28 20 19 17 12 14 11 1 1 6 7 9 8 4 1 1 3 4 3 6 9 6 4 5 2 2 6 6 3 4 6 7 6 4 5 3 3 5 5 3 3 1 3 4 2 4 8 7 4 3 5 6 6 7 6 4 3 4 2 1 5 3 1 1 2 5 7 8 13 17 17 14 10 9 9 8 11 9 3 3 3 2
10 11 21 34 36 35 32 23 20 21 18 12 4 1 3 7 9 12 11 4 1 2 3 5 7 7 6 4 3 6 3 2 6 5 3 5 5 7 6 6 7 2 2 3 4 6 6 3 6 9 4 6 11 7 3 5 6 7 4 3 5 5 3 4 3 3 5 3 1 2 2 5 3 1 5 11 10 8 6 7 7 8 11 9 5 6 7 6
10 10 13 26 32 32 32 26 22 25 23 13 2 2 6 9 9 11 9 4 2 2 4 5 9 8 5 0 1 4 2 1 5 4 3 6 5 7 8 8 11 7 4 5 3 3 5 5 3 4 1 8 10 3 3 5 4 4 1 1 4 3 3 2 2 1 2 4 2 4 3 5 4 3 4 5 5 5 5 6 7 10 12 8 7 9 8 7
9 9 10 18 27 31 31 26 25 29 24 11 4 6 9 9 5 5 5 5 4 7 9 6 5 5 5 2 1 4 1 1 6 4 3 4 3 5 7 6 9 11 8 6 2 3 3 2 2 2 1 3 3 0 2 1 2 4 3 4 2 1 1 3 1 2 1 5 5 3 6 7 5 7 8 9 9 8 7 7 8 12 11 7 7 10 8 5
8 7 8 14 23 30 33 29 29 30 18 8 9 10 9 7 1 1 3 4 6 11 11 6 5 5 7 5 4 7 4 2 5 5 4 4 3 6 8 4 7 14 14 8 2 2 3 1 1 1 1 1 2 1 3 3 1 4 4 5 3 2 1 2 3 1 2 6 4 3 7 8 5 6 3 6 8 11 11 11 11 12 10 7 8 10 9 4
9 6 6 13 21 27 33 34 31 23 9 6 11 10 6 6 2 2 2 2 7 9 7 6 5 5 7 7 6 8 7 5 6 6 5 5 5 7 11 6 7 16 17 8 2 1 3 3 0 1 1 2 1 2 3 2 1 1 1 2 2 2 3 3 4 4 3 5 4 3 5 8 9 7 2 6 8 10 10 10 12 13 11 9 10 10 9 5
8 5 4 12 20 22 31 37 28 14 5 6 10 9 6 6 2 4 1 1 4 6 8 8 5 3 5 7 6 8 9 7 9 8 5 6 5 6 12 10 7 13 15 10 4 1 3 5 2 1 2 2 2 5 6 5 1 2 1 2 1 2 2 3 3 2 4 4 4 3 4 8 9 6 5 9 10 10 10 9 9 10 10 9 8 7 7 5
6 4 3 9 17 22 31 31 17 8 6 6 7 5 3 4 2 2 2 2 1 2 4 5 5 5 6 5 4 6 7 6 8 8 5 7 6 4 10 11 6 7 12 12 6 2 3 4 3 2 1 2 5 6 9 10 8 6 6 7 5 2 0 2 1 0 2 3 3 4 7 10 4 4 6 10 10 12 12 9 6 6 7 6 5 4 4 4
4 4 3 9 20 26 27 17 7 6 5 2 4 5 3 2 3 1 2 5 2 0 2 1 2 3 5 6 3 4 6 4 7 7 4 8 9 5 7 11 9 9 9 9 8 6 4 4 4 4 4 6 4 1 3 6 6 6 7 9 10 8 5 4 4 2 1 3 3 2 7 11 2 4 5 7 8 11 11 8 6 6 7 4 3 5 4 3
4 4 3 13 28 31 19 5 4 5 3 2 4 4 3 2 2 3 3 4 3 1 2 2 1 1 3 5 4 4 6 5 7 7 5 8 11 6 4 8 10 14 11 7 8 7 4 2 4 4 4 4 0 3 2 3 1 0 2 3 5 6 7 7 6 4 3 2 1 1 6 11 2 4 3 3 5 6 7 6 6 5 5 4 4 5 5 4
3 3 3 18 35 31 12 5 6 4 3 4 3 3 3 2 1 3 5 4 2 1 1 0 0 1 1 2 2 4 6 5 7 9 7 6 7 3 2 6 10 12 9 4 4 4 3 1 5 4 1 1 2 1 1 2 1 2 2 2 5 9 10 6 2 3 5 4 4 3 7 11 2 3 1 1 0 2 3 5 6 5 4 4 6 5 3 4
2 2 1 18 38 30 9 6 8 6 6 6 5 6 5 2 3 5 5 7 5 3 4 4 2 2 2 0 2 4 6 5 4 8 5 3 3 1 2 8 11 10 6 3 4 7 5 4 4 4 3 2 2 3 3 2 3 4 5 6 9 12 8 2 1 2 4 9 12 8 9 11 1 3 2 2 1 2 4 4 5 5 4 5 6 5 4 4
2 2 2 10 25 21 8 6 8 7 9 8 7 10 9 4 6 9 7 7 5 4 5 5 4 4 2 1 2 1 4 4 3 4 3 2 2 3 1 7 12 10 5 1 3 7 7 5 6 7 7 7 7 6 4 4 5 4 5 7 11 13 10 5 3 5 7 12 14 9 11 14 4 3 5 4 1 3 6 5 4 5 7 6 5 4 4 5
2 3 2 3 7 8 7 7 7 7 9 10 7 9 13 10 6 7 8 7 6 6 5 3 3 4 3 3 3 3 6 6 3 2 3 3 2 1 2 4 9 11 5 5 5 5 3 3 8 11 11 11 11 7 2 6 7 7 9 11 12 14 15 9 5 7 11 12 11 11 15 20 17 10 8 5 3 5 7 6 5 7 10 8 6 5 5 5
3 4 5 3 2 3 5 6 8 8 9 10 7 6 13 14 7 6 8 7 7 9 6 2 5 6 5 7 8 8 8 8 5 5 5 3 2 2 2 1 6 9 4 4 5 5 3 3 8 11 13 14 15 14 7 9 9 12 13 14 15 15 16 14 11 15 15 11 12 15 17 19 23 22 14 8 6 7 8 8 8 8 9 6 4 5 6 6
4 3 2 2 3 2 2 4 9 11 11 11 8 6 12 15 12 8 7 7 8 10 7 4 7 12 12 13 10 8 9 9 7 8 8 5 2 2 1 1 4 3 3 2 2 4 3 4 7 10 14 17 17 18 14 11 11 14 14 16 17 18 18 18 19 22 19 14 13 15 18 20 21 24 21 14 11 10 10 9 8 6 5 5 4 6 8 8
4 3 3 2 3 2 1 0 5 9 12 12 8 8 11 14 16 11 7 6 7 9 10 9 11 15 15 14 11 8 10 10 8 9 10 8 6 3 2 4 2 1 3 3 1 2 3 5 10 12 13 17 19 20 19 16 15 17 16 14 14 18 22 23 23 24 23 19 16 18 23 24 21 22 19 13 12 11 7 8 7 6 6 8 8 8 9 9
4 3 3 0 2 3 3 1 2 4 7 8 7 9 9 12 16 12 9 9 7 8 11 14 15 15 15 15 13 11 12 12 12 12 12 11 9 6 5 5 2 1 2 4 2 2 4 7 10 10 9 13 17 20 21 18 15 16 15 9 10 16 22 23 20 17 18 20 21 22 24 22 19 18 15 13 10 6 5 9 10 8 9 10 10 10 11 10
6 1 0 0 2 3 3 2 2 2 3 4 5 6 7 11 13 10 9 10 10 9 12 16 17 12 12 15 16 16 16 15 16 16 14 14 12 9 8 7 7 6 4 5 4 3 5 6 6 6 7 11 15 18 20 18 13 12 12 11 14 17 17 16 13 14 17 19 20 20 17 16 17 13 11 13 8 5 9 12 10 9 11 11 11 11 11 11
9 1 1 1 3 4 3 2 2 4 3 4 6 6 6 7 8 8 7 7 10 12 12 15 17 12 10 15 18 20 18 16 15 11 7 9 10 7 5 4 7 8 7 6 3 3 5 6 5 6 7 9 15 17 16 13 10 9 13 20 24 21 14 11 13 18 21 17 15 15 12 14 19 16 15 15 6 4 11 12 10 13 15 13 12 11 10 12
Wind_Direction
170 164 159 156 156 163 175 177 179 182 185 182 181 184 188 196 199 202 202 201 194 188 192 192 194 196 204 245 294 341 357 13 60 70 83 173 161 151 147 113 70 62 69 86 142 161 132 86 79 118 124 70 11 348 85 27 9 242 199 198 212 184 187 179 179 179 116 147 159 166 189 197 171 163 171 170 205 203 182 210 209 220 228 217 101 122 151 158
175 174 160 166 167 165 175 179 183 186 188 183 188 192 191 199 202 203 200 199 194 189 190 188 193 190 201 230 257 352 343 114 114 81 56 172 190 166 150 123 86 75 79 140 161 172 157 107 95 124 124 83 353 349 181 346 337 236 138 219 220 171 148 170 179 161 59 127 149 158 186 213 187 152 162 206 197 184 220 214 203 231 221 192 171 165 161 165
179 183 169 174 174 171 174 175 182 185 189 187 194 198 198 202 200 200 197 194 190 187 188 185 185 187 199 201 183 326 141 151 144 74 29 40 163 161 156 130 103 102 108 145 152 151 139 128 125 134 106 80 34 6 167 8 330 183 186 229 198 144 118 137 190 140 63 16 145 156 151 211 191 134 165 214 211 193 226 223 202 225 224 195 168 166 166 172
193 185 181 186 182 184 183 176 177 183 193 191 195 200 199 198 197 198 192 188 186 184 183 179 179 183 188 178 186 106 131 174 168 51 29 83 132 143 149 136 115 103 106 139 136 125 124 113 99 79 102 107 58 350 98 21 312 143 249 261 73 119 160 123 202 120 72 348 151 144 139 194 145 129 194 199 218 225 232 230 222 233 227 185 162 165 171 177
221 211 191 193 188 188 186 184 182 185 196 197 198 197 197 198 197 193 186 185 180 178 177 175 174 175 175 160 178 165 204 199 144 93 95 108 122 125 129 128 116 103 113 144 128 122 124 104 95 76 70 115 107 150 87 20 328 128 14 349 52 234 108 87 240 124 131 359 146 149 161 177 124 184 217 204 225 236 238 225 226 242 236 159 164 166 169 182
226 223 199 199 197 190 186 189 187 190 197 202 202 194 195 197 193 187 185 183 174 172 174 171 171 168 162 138 126 193 241 232 116 145 126 116 120 116 118 114 108 110 119 148 136 131 122 112 154 129 93 101 79 93 80 16 304 195 99 54 118 308 34 80 101 145 179 183 166 165 161 135 156 213 214 217 234 242 62 78 224 269 29 134 160 163 172 188
229 219 207 207 197 195 191 189 190 194 194 194 201 196 195 195 192 185 181 181 173 170 169 168 170 160 150 140 101 91 189 10 114 162 139 126 121 109 108 104 103 110 121 148 144 142 133 149 152 142 113 102 99 90 68 7 265 254 125 135 172 331 353 26 54 152 189 214 159 120 155 161 198 216 119 227 239 244 169 112 66 28 106 167 164 171 185 191
231 209 213 212 194 198 192 191 200 197 190 183 192 196 194 193 190 180 177 178 170 169 169 167 165 150 149 155 130 106 121 94 161 159 142 135 119 103 101 102 107 111 111 107 117 159 161 132 141 182 126 90 143 112 67 184 108 54 127 146 162 139 336 82 174 167 188 241 113 172 184 169 215 249 288 246 237 236 223 158 184 204 166 190 188 189 193 194
224 209 219 213 193 199 191 197 206 191 183 184 192 194 191 188 183 176 176 175 170 168 166 165 158 151 152 139 129 173 147 109 170 158 145 140 113 94 92 100 117 122 100 79 80 168 186 174 159 203 125 94 154 108 326 235 86 49 112 146 151 112 58 118 168 158 213 241 148 215 190 118 8 337 269 251 239 220 203 190 200 200 199 202 201 202 199 201
216 210 217 206 196 199 196 199 191 179 186 190 187 190 190 184 176 172 172 173 171 166 165 164 152 150 158 146 158 187 137 116 169 161 149 143 111 92 91 97 114 124 100 73 67 72 111 167 146 172 115 101 136 90 326 296 78 68 102 122 123 108 76 96 153 116 256 255 178 241 211 110 142 258 253 241 50 34 200 210 198 205 220 210 208 213 210 211
205 210 209 198 198 197 200 201 187 183 190 184 180 187 185 178 172 169 169 170 168 164 162 158 151 146 142 154 194 176 121 128 160 160 150 140 116 99 96 101 110 118 107 80 67 67 85 127 130 142 116 123 139 88 36 52 89 71 136 164 129 118 119 119 157 114 274 200 171 260 263 189 136 230 244 172 80 250 224 225 207 213 227 216 218 219 216 220
199 212 205 196 199 197 200 197 189 191 185 179 185 179 170 174 173 167 161 161 164 163 157 153 158 151 125 129 189 139 130 132 149 156 151 141 126 108 93 97 103 107 114 95 77 91 108 126 129 92 47 163 154 99 102 106 326 96 220 203 170 244 164 129 136 121 271 183 147 277 268 231 191 226 239 123 104 181 248 245 224 219 228 222 224 225 224 222
203 207 199 199 199 193 193 188 189 193 184 180 171 156 164 159 160 162 157 156 161 160 157 156 157 156 150 142 122 136 137 128 140 148 148 145 128 107 94 98 101 100 110 107 100 107 118 123 105 90 62 130 116 104 137 109 306 164 31 320 265 253 216 111 77 125 207 158 80 252 272 243 197 226 232 95 121 235 258 250 230 223 226 225 224 228 230 219
205 195 193 204 199 185 187 190 192 194 201 191 163 177 177 137 147 157 154 154 158 158 157 159 155 154 163 136 134 155 155 138 143 146 148 146 127 107 102 103 102 100 99 97 94 97 106 102 99 104 61 24 101 150 133 85 339 28 329 288 269 257 184 113 111 174 191 152 28 222 261 268 210 225 184 74 252 240 260 256 238 229 222 230 228 230 237 223
208 187 188 201 202 192 188 193 203 208 218 224 205 189 162 151 153 150 151 152 154 155 152 154 157 153 152 148 148 166 166 158 159 159 157 150 133 113 110 111 105 100 96 91 88 86 87 86 86 96 67 14 152 154 111 75 49 27 264 207 115 252 252 111 132 197 209 92 175 213 249 268 268 278 73 50 258 219 257 262 254 246 235 236 234 234 242 234
211 195 193 199 203 202 193 192 197 198 213 230 205 166 143 153 151 147 149 148 147 149 145 147 157 163 177 148 138 161 172 176 173 172 166 158 151 135 123 113 103 97 94 88 86 79 61 61 57 29 77 146 175 148 130 178 163 57 265 238 132 231 281 346 121 93 330 93 203 228 263 276 268 326 86 88 213 207 255 266 261 252 243 239 240 240 241 240
206 204 202 196 200 202 198 195 189 188 203 202 167 144 137 139 141 141 139 137 134 131 131 132 138 157 186 123 152 181 168 170 170 170 169 164 159 145 130 107 95 98 94 84 80 65 33 46 103 257 70 114 171 162 188 226 221 176 216 251 235 236 274 271 150 102 214 234 223 225 249 265 263 252 200 163 167 230 256 263 262 253 242 235 237 242 241 240
196 197 195 192 196 195 192 193 190 190 183 168 150 135 126 121 124 130 130 126 113 100 103 111 130 195 207 159 168 149 120 141 151 154 162 157 153 148 133 111 114 112 102 83 52 32 15 32 258 185 119 156 169 188 209 228 231 173 187 221 229 227 240 262 269 120 162 232 237 227 237 259 265 266 261 227 180 242 263 264 268 262 251 243 238 242 239 236
184 187 188 188 193 193 188 186 187 179 163 155 140 122 111 106 108 120 129 132 124 114 139 168 174 187 176 147 116 101 111 127 140 145 145 146 149 139 112 107 116 110 132 167 72 40 4 121 146 198 197 200 189 201 215 100 77 125 152 212 242 255 250 256 275 97 196 243 243 239 245 259 265 268 273 265 208 237 262 263 265 263 254 248 243 243 238 234
187 184 183 186 195 196 189 187 187 176 165 157 144 129 120 122 120 129 164 240 219 123 60 148 152 101 83 103 117 119 114 110 122 147 147 147 144 126 93 77 99 98 149 185 113 81 266 186 197 221 213 193 190 189 116 79 80 102 110 204 245 267 269 264 93 85 157 255 252 244 251 262 268 271 274 276 264 255 263 261 257 254 247 243 243 247 241 235
191 184 182 183 191 195 189 189 192 182 175 168 161 158 171 166 160 154 177 244 234 109 34 38 50 74 88 112 141 140 119 91 77 148 157 154 151 149 139 129 160 159 173 91 106 115 221 213 223 226 91 95 153 132 107 107 95 109 180 242 248 238 264 276 339 83 138 232 263 259 262 263 265 271 270 272 267 260 258 255 255 254 250 243 241 247 246 237
194 189 186 183 183 188 187 188 194 192 187 183 185 219 268 201 145 119 143 212 202 153 76 58 45 76 79 117 164 164 151 122 116 175 172 159 173 190 162 160 187 177 126 135 142 144 199 228 230 129 94 88 99 130 149 156 141 170 194 235 253 237 273 277 252 82 163 223 270 282 280 274 269 269 264 258 255 253 252 247 254 261 261 256 246 245 244 239
199 193 190 187 180 176 181 187 192 199 199 196 203 226 244 168 134 117 126 150 150 133 145 177 214 174 122 166 186 177 193 160 151 190 188 171 167 188 156 168 183 140 151 186 187 178 191 239 254 117 135 124 99 137 154 150 187 205 202 220 242 204 272 264 238 83 182 218 301 300 287 277 268 262 255 251 249 255 258 253 255 256 256 257 254 252 251 245
205 196 194 190 179 170 175 181 183 201 213 219 226 221 188 157 150 151 128 61 216 171 172 206 218 186 170 162 175 177 196 189 168 179 184 178 150 152 172 161 148 144 184 199 197 208 193 79 78 132 163 152 124 151 167 181 215 211 210 223 238 232 232 246 331 334 243 189 322 297 285 266 250 251 253 250 249 260 262 257 257 248 244 252 258 263 258 249
213 203 197 189 178 170 169 175 186 205 211 227 230 209 180 173 165 165 131 37 231 148 30 208 193 201 181 141 160 165 114 209 222 168 176 180 146 142 160 117 169 188 185 173 185 235 224 101 119 125 134 151 145 168 188 199 227 226 209 219 235 246 246 245 336 330 278 222 132 322 306 273 200 237 256 263 264 261 245 230 252 251 240 240 252 259 250 241
221 212 201 190 178 167 165 188 202 194 194 231 218 187 177 179 159 153 123 30 249 183 135 178 174 185 170 146 150 136 127 215 258 110 161 178 145 128 153 131 253 207 161 147 182 245 195 96 112 128 135 149 163 202 202 192 219 256 197 212 232 242 253 249 240 258 275 283 214 355 313 289 248 231 240 246 262 266 259 246 256 257 245 229 237 251 244 237
227 219 206 192 179 169 167 191 180 166 184 236 203 180 178 176 156 155 134 304 257 170 133 174 200 172 162 161 163 149 187 189 100 113 151 167 154 74 178 167 154 181 146 146 210 222 152 143 137 133 136 149 179 216 186 180 203 247 107 159 199 204 220 227 216 226 273 326 286 176 239 281 271 233 230 240 254 266 271 269 266 260 253 238 240 248 240 236
229 222 211 196 183 182 183 169 162 172 217 219 182 179 176 169 165 148 170 237 256 123 124 168 127 133 133 147 157 126 258 100 122 158 53 79 143 45 212 189 177 168 158 184 211 208 145 176 176 161 160 181 192 202 159 175 197 30 106 122 131 154 176 167 197 233 289 323 279 171 155 267 273 180 152 247 243 257 263 262 264 263 257 243 248 250 239 232
227 223 213 200 188 191 199 188 177 195 228 193 175 178 171 170 184 77 145 225 206 101 105 132 131 114 116 137 123 62 65 31 71 157 64 90 98 35 205 193 156 138 134 237 219 32 35 212 199 172 180 194 149 41 159 186 190 123 130 106 92 93 83 104 217 233 188 278 259 171 168 248 279 166 151 208 225 240 250 253 259 264 272 253 249 247 231 219
222 221 215 200 189 191 196 209 213 210 209 186 176 172 163 168 186 132 188 226 172 109 77 139 160 151 152 154 155 4 97 44 57 118 101 120 67 33 101 110 85 119 109 328 24 55 42 17 302 216 186 151 107 68 18 60 115 138 142 111 99 99 81 97 25 38 268 267 251 173 184 222 269 185 169 189 203 222 235 246 255 265 275 256 243 238 221 209
217 218 215 199 189 191 187 206 217 203 188 183 168 160 158 127 59 178 196 242 96 136 133 155 159 149 160 162 160 170 131 76 165 156 144 158 123 99 155 152 118 126 201 248 205 99 70 152 199 211 71 110 111 89 53 57 117 155 153 136 141 152 139 187 180 140 247 258 273 143 199 228 245 227 190 212 238 237 234 243 253 263 270 257 232 253 240 210
212 213 213 202 194 193 192 206 206 189 176 173 159 152 166 140 213 220 198 111 152 187 161 153 178 167 166 159 145 158 147 120 175 176 156 161 172 174 189 187 165 170 224 218 191 113 191 200 148 91 273 191 151 113 82 81 194 221 167 162 194 224 216 234 213 182 244 253 12 55 243 246 249 251 255 255 248 240 233 239 250 262 269 259 218 237 246 154
215 210 209 205 199 196 200 209 197 181 167 161 157 138 193 178 198 213 198 165 169 190 118 103 131 163 159 155 159 154 130 137 171 182 162 157 186 196 213 217 179 192 232 188 171 172 203 219 143 160 198 215 191 170 158 173 189 196 181 175 196 207 219 236 212 228 266 267 97 134 194 249 264 259 243 239 238 233 227 237 245 254 264 263 249 247 262 246
220 207 204 206 204 202 205 206 193 180 159 139 136 76 163 198 203 203 202 187 57 30 62 110 126 142 158 164 178 162 148 187 169 164 159 163 192 206 213 226 211 207 62 155 179 192 214 247 180 174 160 176 196 206 159 138 169 195 188 185 209 199 204 230 223 242 274 301 151 163 200 235 245 317 235 240 251 246 238 249 252 254 259 265 274 259 252 244
220 210 206 207 205 204 203 201 194 177 151 124 106 172 185 206 206 208 200 147 108 88 72 110 128 141 174 347 318 192 186 211 168 151 172 178 193 201 195 203 202 187 151 186 197 167 223 270 165 153 116 167 184 217 78 111 163 195 119 214 234 213 191 245 292 259 317 320 252 192 233 246 250 296 261 253 275 254 241 256 258 259 257 259 272 261 245 229
215 211 212 207 205 204 200 197 188 169 148 129 165 196 211 214 203 209 181 127 138 140 120 122 130 148 182 178 211 214 250 106 159 166 198 205 244 214 203 207 191 185 184 184 167 142 206 291 77 72 345 165 180 327 105 157 193 157 162 200 219 351 205 221 259 80 92 276 260 196 249 275 289 273 232 215 239 240 234 242 240 250 253 249 262 264 259 232
208 211 218 212 209 205 200 196 182 167 153 149 182 200 221 226 224 120 149 116 131 142 139 155 178 177 180 179 189 193 187 133 163 194 185 177 242 207 199 225 180 189 203 198 196 208 195 230 54 102 178 127 340 26 86 4 27 133 184 192 139 30 304 233 243 214 180 255 266 208 254 274 271 265 209 168 225 240 236 236 237 245 248 242 245 252 261 255
201 201 237 226 215 206 199 192 179 168 158 163 190 209 217 219 232 78 111 112 128 151 169 178 184 189 186 184 180 176 181 167 166 196 179 171 230 189 175 200 190 196 207 203 223 232 188 219 251 37 221 93 37 202 145 48 10 66 232 177 146 222 209 180 218 242 221 244 266 233 261 268 236 233 207 161 198 230 233 229 234 241 239 237 242 244 255 261
192 180 259 228 215 208 194 185 173 166 178 180 195 213 208 212 214 74 88 163 132 167 193 191 179 191 195 182 154 158 186 186 163 177 189 184 214 184 173 186 192 197 196 185 198 166 165 231 217 116 291 88 136 211 191 164 138 7 275 186 256 281 225 178 177 236 231 234 274 280 282 266 233 204 196 195 192 204 218 217 224 237 234 232 240 240 241 238
195 194 255 206 205 201 187 180 172 170 183 187 204 210 196 206 187 73 50 48 84 192 207 204 181 175 186 175 143 164 193 199 172 181 200 186 198 207 186 182 163 173 181 181 200 161 133 235 221 125 299 207 187 205 196 181 172 183 195 188 190 180 298 250 185 214 255 234 257 276 275 268 241 138 177 195 189 199 214 216 209 235 243 235 241 249 244 228
212 226 229 184 188 183 175 178 192 185 175 193 222 221 213 187 160 161 46 49 44 39 46 359 200 178 168 166 179 183 179 188 185 195 211 194 206 223 190 180 154 138 155 176 203 201 173 205 199 155 190 211 200 172 222 205 177 184 196 193 194 175 154 202 203 182 241 243 227 231 271 271 257 121 177 185 186 201 210 209 197 218 235 224 224 238 247 255
232 235 194 176 178 170 161 187 215 173 175 204 198 201 201 180 149 167 137 65 30 360 40 26 275 212 165 175 189 162 161 181 189 199 222 214 216 222 187 181 158 146 150 169 197 193 149 157 199 189 195 209 134 46 328 289 347 268 241 205 196 174 175 202 208 192 178 223 277 64 274 272 256 123 176 179 195 202 188 195 206 214 219 214 229 228 213 225
244 248 168 175 176 166 156 217 199 168 206 198 177 188 195 203 161 154 163 163 156 181 192 73 349 255 234 184 152 152 177 193 191 200 219 230 228 228 141 162 154 153 157 159 180 163 108 160 206 205 171 66 40 63 60 13 36 237 242 183 192 198 201 207 212 191 167 180 210 191 244 261 266 96 199 145 229 249 172 192 217 228 227 221 238 240 213 210
260 287 231 181 177 171 170 211 193 195 209 189 184 205 212 236 200 182 181 182 173 167 188 200 214 227 260 49 119 171 196 198 211 218 221 239 253 2 109 164 162 169 182 176 174 166 164 192 197 201 207 184 194 206 201 180 183 223 222 195 204 209 195 120 23 225 203 209 209 205 243 254 252 72 239 189 122 261 242 213 216 238 247 236 237 231 213 227
256 245 299 195 181 177 195 211 190 199 203 191 193 202 206 220 213 206 200 186 177 166 179 197 192 165 145 94 79 130 201 201 228 239 238 250 273 356 306 190 179 191 207 104 150 166 169 181 178 191 214 216 213 213 206 179 167 208 222 197 204 206 189 174 202 210 224 227 215 208 243 254 250 121 199 207 188 253 248 233 220 241 242 234 246 247 220 220
238 210 227 225 196 191 211 210 196 204 200 192 194 198 202 210 210 198 197 195 189 188 190 182 153 139 133 163 186 208 220 221 213 219 247 241 228 340 302 213 203 210 193 98 130 155 147 191 193 198 210 221 232 238 160 120 151 198 210 197 197 202 197 196 209 218 224 235 232 220 234 255 266 250 205 188 209 238 245 239 222 238 239 222 215 239 247 240
231 228 199 205 250 220 215 214 203 203 197 189 184 186 199 209 207 177 187 203 193 190 204 182 159 173 173 179 201 215 213 213 201 207 231 233 239 290 309 226 234 231 199 132 153 140 98 219 212 214 221 228 243 246 201 145 173 204 205 199 196 196 197 197 212 224 221 228 243 234 228 246 263 261 243 220 225 237 240 239 230 233 242 238 212 212 233 244
216 252 242 244 274 233 221 227 208 203 197 189 189 195 198 205 206 189 186 206 200 190 198 200 189 196 193 185 194 208 205 206 210 218 226 218 206 267 319 268 249 229 172 185 202 145 146 219 218 220 233 236 245 250 230 197 204 214 210 203 197 193 195 201 216 224 220 223 240 245 241 240 251 260 256 241 238 240 224 220 231 239 248 262 245 220 224 227
220 253 277 299 278 266 10 326 208 209 202 192 198 210 204 204 207 198 176 183 203 196 195 208 209 206 204 198 195 203 201 200 211 220 222 219 203 190 235 249 254 110 142 174 236 177 170 218 219 217 232 238 241 248 244 231 228 234 231 214 197 195 196 202 216 222 222 228 237 245 250 248 248 255 259 251 246 251 234 211 220 232 234 235 229 222 226 224
209 232 237 299 276 276 319 342 173 204 205 194 201 211 210 211 209 198 179 178 188 189 196 214 218 207 207 209 207 216 211 202 210 213 209 215 213 195 212 220 184 83 177 185 206 215 191 208 217 217 233 241 241 246 247 242 237 241 243 227 207 209 208 209 216 221 224 233 237 241 249 255 253 251 260 268 260 250 237 222 218 223 229 233 233 224 222 225
206 209 217 312 269 246 259 250 164 187 218 199 200 205 206 217 212 197 193 195 191 183 188 208 219 214 210 212 214 222 221 212 219 220 205 204 209 202 207 205 183 179 192 195 189 177 192 208 211 210 230 243 242 244 248 249 246 245 249 238 224 219 215 214 215 219 223 228 235 240 245 255 259 251 253 264 258 223 235 234 223 227 228 227 232 226 217 221
208 216 93 232 261 235 234 261 192 204 222 191 197 205 201 215 214 198 205 214 206 205 197 202 214 216 212 216 218 223 227 225 229 234 213 205 216 215 209 203 196 188 176 185 193 150 177 205 212 211 224 240 242 244 248 252 250 239 236 236 233 228 223 220 220 226 229 226 230 236 233 242 254 256 255 258 248 214 244 241 223 228 230 229 232 228 221 224